N83ML KAPF-KTPA

Flight info

Callsign N83ML
Flight time 0h 38m
Altitude 1200
Route VFR VIA FOGAN
Aircraft A139/L-VGD/C

Departure

Time 2026-05-04 15:14
Airport Naples Municipal Airport (KAPF)

Arrival

Time 2026-05-04 15:52
Airport Tampa International Airport (KTPA)
Time Latitude Longitude Altitude Speed Heading
2026-05-04 15:14 26.43270 -81.99447 1145 ft 163 kts 320°
2026-05-04 15:14 26.44183 -82.00202 1145 ft 163 kts 320°
2026-05-04 15:14 26.45083 -82.00947 1146 ft 163 kts 320°
2026-05-04 15:14 26.45989 -82.01696 1146 ft 163 kts 320°
2026-05-04 15:15 26.46916 -82.02464 1145 ft 163 kts 320°
2026-05-04 15:15 26.47829 -82.03219 1145 ft 163 kts 320°
2026-05-04 15:15 26.48873 -82.03749 1162 ft 162 kts 339°
2026-05-04 15:16 26.51049 -82.04442 1130 ft 163 kts 340°
2026-05-04 15:16 26.52147 -82.04784 1128 ft 163 kts 341°
2026-05-04 15:16 26.54341 -82.05463 1140 ft 163 kts 341°
2026-05-04 15:17 26.55430 -82.05801 1144 ft 163 kts 341°
2026-05-04 15:17 26.57638 -82.06483 1148 ft 163 kts 341°
2026-05-04 15:17 26.58732 -82.06821 1148 ft 163 kts 341°
2026-05-04 15:18 26.59832 -82.07160 1147 ft 163 kts 341°
2026-05-04 15:18 26.60944 -82.07504 1147 ft 163 kts 341°
2026-05-04 15:18 26.62048 -82.07845 1146 ft 163 kts 341°
2026-05-04 15:19 26.64235 -82.08523 1146 ft 163 kts 341°
2026-05-04 15:19 26.65345 -82.08866 1146 ft 163 kts 341°
2026-05-04 15:19 26.67547 -82.09548 1146 ft 163 kts 341°
2026-05-04 15:20 26.68652 -82.09890 1146 ft 163 kts 341°
2026-05-04 15:20 26.69749 -82.10230 1146 ft 163 kts 341°
2026-05-04 15:20 26.70844 -82.10570 1146 ft 163 kts 341°
2026-05-04 15:20 26.71938 -82.10908 1146 ft 163 kts 341°
2026-05-04 15:21 26.73033 -82.11248 1146 ft 163 kts 341°
2026-05-04 15:21 26.74131 -82.11589 1146 ft 163 kts 341°
2026-05-04 15:21 26.76324 -82.12269 1146 ft 163 kts 341°
2026-05-04 15:22 26.77432 -82.12613 1146 ft 163 kts 341°
2026-05-04 15:22 26.78524 -82.12952 1146 ft 163 kts 341°
2026-05-04 15:22 26.80730 -82.13637 1146 ft 163 kts 341°
2026-05-04 15:23 26.81818 -82.13974 1146 ft 163 kts 341°
2026-05-04 15:23 26.82917 -82.14316 1146 ft 163 kts 341°
2026-05-04 15:23 26.84018 -82.14658 1146 ft 163 kts 341°
2026-05-04 15:23 26.85105 -82.14996 1146 ft 163 kts 341°
2026-05-04 15:24 26.87303 -82.15679 1146 ft 163 kts 341°
2026-05-04 15:24 26.89491 -82.16359 1146 ft 163 kts 341°
2026-05-04 15:25 26.90597 -82.16703 1146 ft 163 kts 341°
2026-05-04 15:25 26.91685 -82.17042 1146 ft 163 kts 341°
2026-05-04 15:25 26.92794 -82.17387 1146 ft 163 kts 341°
2026-05-04 15:26 26.94978 -82.18066 1146 ft 163 kts 341°
2026-05-04 15:26 26.96088 -82.18412 1146 ft 163 kts 341°
2026-05-04 15:26 26.98286 -82.19096 1146 ft 163 kts 341°
2026-05-04 15:27 26.99375 -82.19436 1146 ft 163 kts 341°
2026-05-04 15:27 27.01575 -82.20122 1146 ft 163 kts 341°
2026-05-04 15:28 27.03783 -82.20810 1146 ft 163 kts 341°
2026-05-04 15:28 27.04879 -82.21152 1146 ft 163 kts 341°
2026-05-04 15:28 27.07078 -82.21838 1146 ft 163 kts 341°
2026-05-04 15:29 27.08178 -82.22181 1146 ft 163 kts 341°
2026-05-04 15:30 27.12589 -82.23560 1145 ft 163 kts 341°
2026-05-04 15:30 27.15905 -82.24598 1146 ft 163 kts 341°
2026-05-04 15:31 27.18110 -82.25288 1146 ft 163 kts 341°
2026-05-04 15:31 27.19203 -82.25629 1146 ft 163 kts 341°
2026-05-04 15:32 27.22502 -82.26662 1146 ft 163 kts 341°
2026-05-04 15:32 27.24697 -82.27348 1146 ft 163 kts 341°
2026-05-04 15:33 27.26901 -82.28039 1146 ft 163 kts 341°
2026-05-04 15:34 27.28914 -82.28669 1146 ft 163 kts 341°
2026-05-04 15:34 27.30010 -82.29013 1146 ft 163 kts 341°
2026-05-04 15:34 27.32206 -82.29701 1146 ft 163 kts 341°
2026-05-04 15:35 27.34400 -82.30389 1146 ft 163 kts 341°
2026-05-04 15:35 27.35491 -82.30731 1146 ft 163 kts 341°
2026-05-04 15:35 27.36599 -82.31079 1146 ft 163 kts 341°
2026-05-04 15:36 27.38794 -82.31767 1146 ft 163 kts 341°
2026-05-04 15:36 27.39891 -82.32111 1146 ft 163 kts 341°
2026-05-04 15:36 27.40979 -82.32454 1146 ft 163 kts 341°
2026-05-04 15:37 27.42083 -82.32800 1146 ft 163 kts 341°
2026-05-04 15:37 27.43183 -82.33146 1146 ft 163 kts 341°
2026-05-04 15:37 27.44278 -82.33490 1146 ft 163 kts 341°
2026-05-04 15:37 27.45377 -82.33835 1146 ft 163 kts 341°
2026-05-04 15:38 27.46476 -82.34180 1146 ft 163 kts 341°
2026-05-04 15:38 27.47579 -82.34528 1146 ft 163 kts 341°
2026-05-04 15:38 27.48673 -82.34871 1146 ft 163 kts 341°
2026-05-04 15:38 27.49778 -82.35219 1146 ft 163 kts 341°
2026-05-04 15:39 27.50848 -82.35621 1151 ft 163 kts 334°
2026-05-04 15:39 27.51904 -82.36119 1142 ft 163 kts 333°
2026-05-04 15:39 27.53993 -82.37116 1145 ft 163 kts 333°
2026-05-04 15:40 27.55058 -82.37624 1144 ft 163 kts 334°
2026-05-04 15:40 27.56174 -82.37805 1162 ft 162 kts 353°
2026-05-04 15:40 27.57318 -82.37855 1144 ft 162 kts 354°
2026-05-04 15:40 27.58469 -82.37897 1127 ft 163 kts 355°
2026-05-04 15:41 27.59609 -82.37935 1129 ft 163 kts 355°
2026-05-04 15:41 27.60745 -82.37972 1137 ft 163 kts 355°
2026-05-04 15:41 27.61882 -82.38008 1143 ft 163 kts 355°
2026-05-04 15:41 27.63021 -82.38044 1146 ft 163 kts 355°
2026-05-04 15:42 27.63481 -82.38058 1147 ft 163 kts 355°
2026-05-04 15:42 27.64299 -82.38084 1148 ft 163 kts 355°
2026-05-04 15:42 27.64334 -82.38085 1148 ft 163 kts 355°
2026-05-04 15:42 27.65478 -82.38121 1148 ft 163 kts 355°
2026-05-04 15:43 27.66623 -82.38157 1148 ft 163 kts 355°
2026-05-04 15:43 27.67752 -82.38193 1147 ft 163 kts 355°
2026-05-04 15:43 27.68891 -82.38229 1146 ft 163 kts 355°
2026-05-04 15:43 27.70033 -82.38264 1146 ft 163 kts 355°
2026-05-04 15:44 27.71175 -82.38300 1146 ft 163 kts 355°
2026-05-04 15:44 27.72325 -82.38336 1146 ft 163 kts 355°
2026-05-04 15:44 27.73463 -82.38372 1146 ft 163 kts 355°
2026-05-04 15:44 27.74610 -82.38408 1146 ft 163 kts 355°
2026-05-04 15:45 27.75738 -82.38443 1146 ft 163 kts 355°
2026-05-04 15:45 27.76886 -82.38480 1146 ft 163 kts 355°
2026-05-04 15:45 27.78028 -82.38515 1146 ft 163 kts 355°
2026-05-04 15:45 27.79160 -82.38551 1146 ft 163 kts 355°
2026-05-04 15:46 27.80304 -82.38587 1146 ft 163 kts 355°
2026-05-04 15:46 27.81443 -82.38622 1146 ft 163 kts 355°
2026-05-04 15:46 27.82484 -82.38655 1146 ft 163 kts 355°
2026-05-04 15:46 27.83609 -82.38689 1243 ft 154 kts 354°
2026-05-04 15:47 27.84654 -82.38721 1204 ft 145 kts 352°
2026-05-04 15:47 27.85656 -82.38757 1131 ft 143 kts 353°
2026-05-04 15:47 27.86664 -82.38789 1107 ft 143 kts 354°
2026-05-04 15:47 27.87660 -82.38868 1129 ft 142 kts 341°
2026-05-04 15:48 27.88568 -82.39368 1096 ft 145 kts 336°
2026-05-04 15:48 27.89506 -82.39749 1145 ft 142 kts 336°
2026-05-04 15:48 27.91346 -82.40639 1126 ft 143 kts 328°
2026-05-04 15:49 27.92205 -82.41206 1103 ft 143 kts 321°
2026-05-04 15:49 27.93018 -82.41872 1082 ft 143 kts 319°
2026-05-04 15:49 27.93753 -82.42622 1087 ft 142 kts 307°
2026-05-04 15:49 27.94392 -82.43478 1142 ft 136 kts 302°
2026-05-04 15:50 27.94949 -82.44347 1118 ft 133 kts 298°
2026-05-04 15:50 27.95438 -82.45226 1153 ft 131 kts 297°
2026-05-04 15:50 27.95785 -82.46139 1228 ft 123 kts 288°
2026-05-04 15:50 27.96038 -82.47013 1342 ft 113 kts 288°
2026-05-04 15:51 27.96279 -82.47845 1336 ft 107 kts 285°
2026-05-04 15:51 27.96495 -82.48614 1253 ft 95 kts 281°
2026-05-04 15:51 27.96656 -82.49278 1113 ft 81 kts 277°
2026-05-04 15:51 27.96763 -82.49875 914 ft 76 kts 272°
2026-05-04 15:52 27.96836 -82.50437 724 ft 67 kts 270°
2026-05-04 15:52 27.96876 -82.50944 536 ft 62 kts 268°
2026-05-04 15:52 27.96899 -82.51393 355 ft 55 kts 271°
2026-05-04 15:52 27.96919 -82.51794 161 ft 43 kts 270°
2026-05-04 15:53 27.96928 -82.52089 67 ft 34 kts 274°
2026-05-04 15:53 27.96910 -82.52261 54 ft 24 kts 262°
2026-05-04 15:53 27.96866 -82.52452 51 ft 23 kts 268°
2026-05-04 15:53 27.96871 -82.52562 26 ft 1 kts 271°
2026-05-04 15:54 27.96872 -82.52571 21 ft 0 kts 271°
2026-05-04 15:54 27.96872 -82.52573 21 ft 1 kts 271°
2026-05-04 15:54 27.96873 -82.52612 21 ft 7 kts 272°
2026-05-04 15:54 27.96871 -82.52670 20 ft 7 kts 244°
2026-05-04 15:55 27.96820 -82.52687 20 ft 8 kts 183°
2026-05-04 15:55 27.96807 -82.52688 20 ft 0 kts 182°
2026-05-04 15:55 27.96800 -82.52689 21 ft 3 kts 181°
2026-05-04 15:55 27.96763 -82.52689 21 ft 7 kts 181°
2026-05-04 15:56 27.96714 -82.52667 21 ft 8 kts 114°
2026-05-04 15:56 27.96711 -82.52636 21 ft 0 kts 89°